OBJECT E

Satellite information

Favourite Embed

Satellite Type and Status

UNKNOWNIN ORBIT

Key statistics

Satellite OBJECT E at a glance.

Uptime

206

Days in orbit

Revolutions

≈ 15.2

Per day

Orbit

SSO

Sun Synchronous Orbit

Inclination

97.5

Latest

Satellite identification and parameters

Extended collection of information and parameters for OBJECT E.

Object identification

Identified? True

Debris? False

Object name: OBJECT E

International designator: 2025-108E

Object number (NORAD): 64091

Object ID (CCSDS): 64091

Country: PEOPLES REPUBLIC OF CHINA (PRC)

Current information (Y/N): Y

RCS size: MEDIUM

Orbital parameters

Period: 94.824 minutes

Inclination: 97.4887 deg

SMA: 6888.185 km

Apoapsis: 518.656 km

Periapsis: 501.444 km

RAAN: 59.3531 deg

Eccentricy: 0.00124942

Argument of periapsis: 298.204 deg

Mean anomaly: 61.7932 deg

Mean motion: 15.18607494 rev/day

Mean motion (dot): 0.00021762 rev/day2

B* drag term: 0.0010507974 1/REarth

Two-line elements (TLE)

Creation date: Dec. 12, 2025, 10:14 a.m.

Reference frame: TEME

Reference center: EARTH

Epoch: Dec. 12, 2025, 6:28 a.m. UTC

TLE line 0: 0 OBJECT E

TLE line 1: 1 64091U 25108E 25346.26969484 .00021762 00000-0 10508-2 0 9998

TLE line 2: 2 64091 97.4887 59.3531 0012494 298.2040 61.7932 15.18607494 31025

Live tracking on map

Real-time ground track for satellite OBJECT E.

In-orbit conjunctions

There are no conjunctions computed for OBJECT E, at the moment. Check back to stay up to date, as we update our databases every day.

Go to all conjunctions

Associated space launch

Carried 6 satellites to Sun-synchronous orbit, including commercial Earth observation satellites Taijing-3-04 & Taijing-4-02A: * Taijing-3-04 * Taijing-4-02A * Xingrui-11 * Xiguang-1 02 * Xingjiyuan-1 * Cube-108 001

OBJECT E was lifted into orbit during the mission ‘Kinetica 1 | 6 satellites’, on board a Kinetica 1 space rocket.

The launch took place on May 21, 2025, 4:05 a.m. from Launch Area 130.

For more information about the launch, click the button.

Launch to space Kinetica 1 | 6 satellites
Kinetica 1 | 6 satellites

Agency: N/A

Status: Launch Successful

Launch date: May 21, 2025, 4:05 a.m. UTC

Rocket: Kinetica 1

Launch pad: Launch Area 130

Location: Jiuquan Satellite Launch Center, People's Republic of China

...

Latest news about this satellite

News about space launch
Launch Roundup: SpaceX to start new Starlink shell; China, Russia to launch unknown payloads

This week, SpaceX will begin building a new shell for its Starlink constellation, launching from… The post Launch Roundup: SpaceX to start new Starlink shell; China, Russia to launch unknown payloads appeared first on NASASpaceFlight.com.


Newsletter sign-up

Weekly statistics, charts and insights to help you stay on top of the space industry.